Weather History for Nantucket, MA

Change the Weather History Date:

Monday, February 17, 2014

  Actual Average Record
Temperature  
Mean Temperature 24 °F -  
Max Temperature 28 °F 33 °F 50 °F (2006)
Min Temperature 19 °F 22 °F 5 °F (1979)
Degree Days  
Heating Degree Days 42    
Moisture  
Dew Point 7 °F    
Average Humidity 50    
Maximum Humidity 74    
Minimum Humidity 34    
Precipitation  
Precipitation 0.00 in - - ()
Sea Level Pressure  
Sea Level Pressure 30.17 in    
Wind  
Wind Speed 15 mph (NW)    
Max Wind Speed 22 mph    
Max Gust Speed 32 mph    
Visibility 10 miles    
Events Snow    
Averages and records for this station are not official NWS values.
T = Trace of Precipitation, MM = Missing Value Source: NWS Daily Summary

Daily Weather History Graph

Daily Weather History Graph

Search for Another Location

Airport:

Trip Planner

Search our weather history database for the weather conditions in past years. The results will help you decide how hot, cold, wet, or windy it might be!

Date:

Astronomy

Feb. 17, 2014 Rise Set
Actual Time 6:32 AM EST 5:16 PM EST
Civil Twilight 6:04 AM EST 5:44 PM EST
Nautical Twilight 5:31 AM EST 6:17 PM EST
Astronomical Twilight 4:59 AM EST 6:49 PM EST
Moon 8:10 PM EST 7:29 AM EST
Length of Visible Light 11h 40m
Length of Day
10h 44m
Waning Gibbous, 93% of the Moon is Illuminated
Feb 17
Waning Gibbous
Feb 22
Last Quarter
Mar 1
New
Mar 8
First Quarter
Mar 16
Full

Hourly Weather History & Observations

Time (EST) Temp. Windchill Dew Point Humidity Pressure Visibility Wind Dir Wind Speed Gust Speed Precip Events Conditions
12:02 AM 24.8 °F 13.4 °F 17.6 °F 74% 29.93 in 4.0 mi NW 12.7 mph - 0.00 in Snow Light Snow
12:15 AM 26.6 °F 15.2 °F 17.6 °F 69% 29.93 in 9.0 mi NW 13.8 mph - 0.00 in   Overcast
12:53 AM 26.1 °F 13.6 °F 15.1 °F 63% 29.94 in 10.0 mi NW 16.1 mph - 0.00 in   Overcast
1:53 AM 25.0 °F 12.2 °F 12.9 °F 60% 29.96 in 10.0 mi NW 16.1 mph 27.6 mph N/A   Mostly Cloudy
2:53 AM 23.0 °F 8.7 °F 10.9 °F 60% 29.98 in 10.0 mi NW 18.4 mph 27.6 mph N/A   Overcast
3:53 AM 21.9 °F 6.2 °F 10.0 °F 60% 30.01 in 10.0 mi NW 21.9 mph 29.9 mph N/A   Clear
4:53 AM 19.9 °F 5.2 °F 3.9 °F 50% 30.04 in 10.0 mi NW 17.3 mph 25.3 mph N/A   Clear
5:53 AM 19.9 °F 4.3 °F 3.0 °F 48% 30.07 in 10.0 mi NW 19.6 mph 29.9 mph 0.00 in   Clear
6:53 AM 19.0 °F 4.0 °F 3.0 °F 50% 30.12 in 10.0 mi NW 17.3 mph - N/A   Clear
7:53 AM 19.0 °F 2.4 °F 3.0 °F 50% 30.14 in 10.0 mi NW 21.9 mph 32.2 mph N/A   Clear
8:53 AM 19.9 °F 3.5 °F 3.9 °F 50% 30.17 in 10.0 mi NW 21.9 mph 29.9 mph N/A   Clear
9:53 AM 21.0 °F 5.7 °F 6.1 °F 53% 30.18 in 10.0 mi NW 19.6 mph 27.6 mph N/A   Clear
10:53 AM 21.9 °F 6.5 °F 6.1 °F 51% 30.19 in 10.0 mi NW 20.7 mph - N/A   Clear
11:53 AM 24.1 °F 10.6 °F 7.0 °F 48% 30.21 in 10.0 mi NNW 17.3 mph - N/A   Clear
12:53 PM 26.1 °F 12.7 °F 6.1 °F 43% 30.21 in 10.0 mi NNW 18.4 mph 25.3 mph N/A   Clear
1:53 PM 28.0 °F 16.1 °F 6.1 °F 39% 30.22 in 10.0 mi NW 16.1 mph 25.3 mph N/A   Clear
2:53 PM 28.0 °F 17.0 °F 7.0 °F 41% 30.25 in 10.0 mi NW 13.8 mph - N/A   Clear
3:53 PM 28.0 °F 16.5 °F 5.0 °F 38% 30.27 in 10.0 mi NW 15.0 mph 20.7 mph N/A   Clear
4:53 PM 27.0 °F 18.7 °F 6.1 °F 41% 30.29 in 10.0 mi NNW 8.1 mph - N/A   Clear
5:53 PM 24.1 °F 17.0 °F 6.1 °F 46% 30.30 in 10.0 mi WNW 5.8 mph - N/A   Clear
6:53 PM 26.1 °F 16.8 °F 3.9 °F 39% 30.32 in 10.0 mi NNW 9.2 mph - N/A   Clear
7:53 PM 26.1 °F 15.6 °F 1.0 °F 34% 30.33 in 10.0 mi NW 11.5 mph - N/A   Clear
8:53 PM 25.0 °F 14.8 °F 3.9 °F 41% 30.35 in 10.0 mi North 10.4 mph - N/A   Clear
9:53 PM 25.0 °F 14.2 °F 6.1 °F 45% 30.35 in 10.0 mi NNW 11.5 mph - N/A   Clear
10:53 PM 21.9 °F 15.7 °F 7.0 °F 53% 30.33 in 10.0 mi NNE 4.6 mph - N/A   Clear
11:53 PM 19.9 °F 13.4 °F 8.1 °F 60% 30.36 in 10.0 mi West 4.6 mph - N/A   Clear